Regional Weather Roundup
Issued by NWS Cleveland, OH

Home | Current Version | Previous Version | Graphics & Text | Print | Product List | Glossary On
Versions: 1 2 3 4 5 6 7 8 9 10 11 12 13 14 15 16 17 18 19 20 21 22 23 24 25 26 27 28 29 30 31 32 33 34 35 36 37 38 39 40 41 42 43 44 45 46 47 48 49 50
000
ASUS41 KCLE 281610
RWRCLE
OHIO REGIONAL WEATHER ROUNDUP
NATIONAL WEATHER SERVICE WILMINGTON, OH
1200 PM EDT TUE MAR 28 2017

NOTE: "FAIR" INDICATES FEW OR NO CLOUDS BELOW 12,000 FEET WITH NO
SIGNIFICANT WEATHER AND/OR OBSTRUCTIONS TO VISIBILITY.

OHZ001>008-015>018-024>027-034-035-043-044-281700-
   NORTHWEST OHIO

CITY           SKY/WX    TMP DP  RH WIND       PRES   REMARKS
DEFIANCE       CLOUDY    46  43  89 N8        30.05R
FINDLAY        CLOUDY    48  41  76 NE10      30.03R
TOLEDO EXPRESS CLOUDY    46  41  82 N13       30.04R
TOLEDO EXEC    CLOUDY    47  41  80 N8        30.05R
LIMA           CLOUDY   N/A N/A N/A MISG      30.03R
$$

OHZ009>014-019>023-028>033-038-089-281700-
   NORTHEAST OHIO

CITY           SKY/WX    TMP DP  RH WIND       PRES   REMARKS
CLE-HOPKINS    CLOUDY    42  38  85 N12       30.03R FOG
CLE-LAKEFRONT  CLOUDY    41  38  89 NE6       30.00R
CUY CO. ARPT   DRIZZLE   43  41  93 N12       30.00R FOG
LORAIN-ELYRIA  CLOUDY    41  38  89 N12       30.01R FOG
ASHTABULA      CLOUDY    44  44 100 VRB6      29.97R FOG
AKRON-CANTON   CLOUDY    51  48  89 N12       29.94R FOG
WOOSTER        CLOUDY    49  46  90 N14G20    29.96R
MANSFIELD      FOG       44  44 100 NW14      29.99R VSB 1/4
YOUNGSTOWN     CLOUDY    52  48  86 N13       29.94R
$$

OHZ042-051>053-060>062-070>072-077>081-281700-
  SOUTHWEST OHIO

CITY           SKY/WX    TMP DP  RH WIND       PRES   REMARKS
CINC-COVINGTON CLOUDY    57  53  86 N10       29.98R
CINC-LUNKEN    CLOUDY    59  55  87 N12       29.98R
HAMILTON       CLOUDY    59  54  83 N7        29.99S
DAYTON         CLOUDY    53  51  93 N16       30.00R
WRIGHT-PAT AFB CLOUDY    54  54 100 N10       29.99R
DAYTON GENERAL CLOUDY    56  52  86 N10       29.98R
WILMINGTON     CLOUDY    57  54  89 N8        29.97R
$$

OHZ036-037-039>041-045>050-054>059-063>069-073>076-082>088-281700-
  CENTRAL AND SOUTHEAST OHIO

CITY           SKY/WX    TMP DP  RH WIND       PRES   REMARKS
COLUMBUS       CLOUDY    56  52  86 N12       29.95R
OSU AIRPORT    PTSUNNY   54  50  86 N13       29.97R
BOLTON FIELD   CLOUDY    55  52  88 N9        29.97R
RICKENBACK AFB CLOUDY    56  54  94 N10       29.95R
NEWARK         CLOUDY    56  51  84 N8        29.93S
MARION         CLOUDY    46  44  93 N17       30.01R FOG
LANCASTER      CLOUDY    60  54  80 N9        29.94S
ZANESVILLE     CLOUDY    55  51  86 NW8       29.93S
NEW PHILLY     CLOUDY    55  52  89 N7        29.92S
$$



USA.gov is the U.S. government's official web portal to all federal, state and local government web resources and services.